Location: Unspecified
(0.0000°N, 0.0000°E)
Time: 17:57:36
(UTC+00:00)

Courier 1B Rocket - Pass Details

Date: 09 October 2020
Orbit: 921 x 1202 km, 28.2° (Epoch: 27 October)

Event Time Altitude Azimuth Distance (km) Brightness Sun altitude
Rises 19:43:39 0° 219° (SW) 4,012 8.8 -28.9°
Reaches altitude 10° 19:47:01 10° 206° (SSW) 3,084 8.0 -29.8°
Enters shadow 19:52:25 25° 162° (SSE) 2,200 6.7 -31.1°
Maximum altitude 19:53:08 25° 153° (SSE) 2,188 - -31.3°
Drops below altitude 10° 19:59:19 10° 101° (E) 3,129 - -32.8°
Sets 20:02:45 0° 88° (E) 4,083 - -33.7°
